Regional Weather Roundup
Issued by NWS

Home | Current Version | Previous Version | Text Only | Print | Product List | Glossary On
Versions: 1 2 3 4 5 6 7 8 9 10 11 12 13 14 15 16 17 18 19 20 21 22 23 24 25 26 27 28 29 30 31 32 33 34 35 36 37 38 39 40 41 42 43 44 45 46 47 48 49 50
000
ASUS43 KMPX 191001
RWRMN
WEATHER ROUNDUP FOR MINNESOTA
NATIONAL WEATHER SERVICE TWIN CITIES/CHANHASSEN MN
400 AM CST FRI DEC 19 2014


NOTE: "FAIR" INDICATES FEW OR NO CLOUDS BELOW 12,000 FEET WITH NO
SIGNIFICANT WEATHER AND/OR OBSTRUCTIONS TO VISIBILITY. N/A MEANS
CURRENT SKY AND/OR WEATHER CONDITIONS ARE NOT AVAILABLE.

MNZ060>063-068>070-191100-
   Twin Cities Metro

CITY           SKY/WX    TMP DP  RH WIND       PRES   REMARKS
TWIN CITIES    CLOUDY    21  16  81 SE5       30.26F WCI  15
ST PAUL        CLOUDY    22  17  81 S5        30.28F WCI  16
CRYSTAL        LGT SNOW  22  17  81 SE5       30.25F WCI  16
BLAINE         FLURRIES  23  19  86 SE3       30.25F
LAKEVILLE      CLOUDY    19  18  93 SE5       30.25F WCI  13
EDEN PRAIRIE   FLURRIES  22  16  78 E5        30.25S WCI  16
SOUTH ST PAUL  CLOUDY    23  17  79 CALM      30.27F
LAKE ELMO      CLOUDY    23  19  86 S3        30.27F
$$
MNZ001>005-007-008-013>017-022>024-027-028-191100-
   Northwest Minnesota

CITY           SKY/WX    TMP DP  RH WIND       PRES   REMARKS
BEMIDJI        CLOUDY    19  15  86 S6        30.15F WCI  10
HALLOCK        CLOUDY    21  19  93 S15       30.10F WCI   8
ROSEAU         CLOUDY    21  16  79 S13       30.13F WCI   9
WARROAD        CLOUDY    19  16  86 S8        30.14S WCI   9
THIEF RVR FALL CLOUDY    21  18  86 S13       30.12F WCI   9
CROOKSTON      MOCLDY    21  19  93 S13       30.13F WCI   9
FOSSTON        CLOUDY    19  18  93 SE7       30.13F WCI  10
DETROIT LAKES  CLOUDY    21  19  93 S10       30.14F WCI  10
MOORHEAD       CLOUDY    23  23 100 S15       30.14F FOG     WCI  10
PARK RAPIDS    LGT SNOW  19  15  84 SE12      30.15F FOG     WCI   7
MAHNOMEN       FLURRIES  20  17  86 SE8       30.13F WCI  11
$$
MNZ006-009>011-018-025>026-191100-
   North Central Minnesota

CITY           SKY/WX    TMP DP  RH WIND       PRES   REMARKS
BAUDETTE       CLOUDY    20  16  84 S5        30.15F WCI  13
FLAG ISLAND    CLOUDY    19  16  86 S14       30.14F WCI   6
INTL FALLS     CLOUDY    21  18  88 S5        30.18S WCI  15
WASKISH        CLOUDY    19  18  93 CALM      30.16S
BIG FORK       CLOUDY    19  18  93 S7        30.18F WCI  10
LONGVILLE      LGT SNOW  19  16  86 SE7       30.18F WCI  10
GRAND RAPIDS   CLOUDY    18  16  93 S7        30.18F WCI   8
CRANE LAKE     CLOUDY    21  18  86 CALM      30.22S
ORR            CLOUDY    21  18  86 S6        30.16S WCI  14
COOK           CLOUDY    21  19  93 S6        30.19F WCI  14
WALKER         CLOUDY    18  14  85 SE6       30.16F WCI  10
$$
MNZ012-019>021-037-191100-
   Northeast Minnesota

CITY           SKY/WX    TMP DP  RH WIND       PRES   REMARKS
DULUTH         FLURRIES  20  17  88 SW8       30.20F WCI  10
ELY            CLOUDY    21  18  86 S3        30.19F
HIBBING        CLOUDY    20  16  84 VRB3      30.20F
EVELETH        FLURRIES  21  19  93 S12       30.21S WCI   9
DULUTH HARBOR  CLOUDY    25  21  86 CALM      30.28S
SILVER BAY     CLOUDY    25  19  80 CALM      30.21F
GRAND MARAIS     N/A     26  17  68 NE5       30.26F WCI  20
G MARAIS ARPRT CLOUDY    18  14  86 E3        30.19S
$$
MNZ029>031-032-039>041-046>048-054>057-064-191100-
   West Central Minnesota

CITY           SKY/WX    TMP DP  RH WIND       PRES   REMARKS
FERGUS FALLS   CLOUDY    21  19  93 SE10      30.18F WCI  10
WHEATON        MOCLDY    21  19  93 SE13      30.16F FOG     WCI   9
MORRIS         CLOUDY    23  21  93 SE12      30.15F FOG     WCI  12
ALEXANDRIA     CLOUDY    21  19  92 SE9       30.16F FOG     WCI  11
ELBOW LAKE     CLOUDY    21  20  96 SE12      30.15F FOG     WCI   9
WADENA         CLOUDY    18  16  93 NW6       30.16F WCI   9
GLENWOOD       CLOUDY    21  19  93 SE9       30.17F FOG     WCI  11
APPLETON       CLOUDY    27  23  86 SE3       30.16F
BENSON         CLOUDY    25  21  86 S9        30.17F WCI  15
ORTONVILLE     CLOUDY    25  21  86 SE7       30.15F FOG     WCI  17
MADISON        PTCLDY    28  27  93 SE5       30.16F WCI  23
WILLMAR        CLOUDY    25  21  86 SE8       30.20F FOG     WCI  16
$$
MNZ033>034-036-042>043-049>051-058-059-191100-
   Central Minnesota

CITY           SKY/WX    TMP DP  RH WIND       PRES   REMARKS
ST CLOUD       LGT SNOW  22  17  81 SE5       30.23F WCI  16
SAUK CENTRE    CLOUDY    19  18  95 SE7       30.19F FOG     WCI  10
PAYNESVILLE    CLOUDY    19  18  98 E7        30.20F FOG     WCI   9
AITKIN         MOCLDY    21  18  86 S3        30.20F
PINE RIVER     LGT SNOW  18  16  93 SE5       30.21F WCI  11
BRAINERD       LGT SNOW  19  16  88 SE5       30.21F FOG     WCI  12
STAPLES        CLOUDY    18  16  93 SE5       30.18F WCI  11
LONG PRAIRIE   CLOUDY    19  18  93 SE8       30.19F WCI   9
LITTLE FALLS   LGT SNOW  21  18  86 SE5       30.21F WCI  15
LITCHFIELD     CLOUDY    21  21 100 SE5       30.22F WCI  15
BUFFALO        LGT SNOW  21  17  86 E3        30.25F
MAPLE LAKE     LGT SNOW  22  19  90 SE5       30.24F WCI  16
$$
MNZ037-044-045-052-053-191100-
   East Central Minnesota

CITY           SKY/WX    TMP DP  RH WIND       PRES   REMARKS
PRINCETON      LGT SNOW  21  18  86 CALM      30.24F
MORA           MOCLDY    19  16  86 S6        30.27R WCI  11
CAMBRIDGE      CLOUDY    23  16  74 CALM      30.24F
RUSH CITY      CLOUDY    21  18  85 CALM      30.26S
MOOSE LAKE     CLOUDY    21  19  93 S3        30.22S
HINCKLEY       CLOUDY    23  21  93 CALM      30.25S
CLOQUET        CLOUDY    19  18  93 SW5       30.22S WCI  13
MCGREGOR       CLOUDY    21  19  93 SE5       30.22F WCI  15
$$
MNZ071>073-080-081-089-090-097-098-191100-
   Southwest Minnesota

CITY           SKY/WX    TMP DP  RH WIND       PRES   REMARKS
MONTEVIDEO     CLOUDY    25  25 100 S6        30.19F WCI  18
GRANITE FALLS  CLOUDY    25  23  92 SE7       30.20F WCI  17
CANBY          CLOUDY    27  26  96 SE5       30.16F FOG     WCI  22
MARSHALL       CLOUDY    27  25  93 S5        30.17F WCI  21
REDWOOD FALLS  CLOUDY    25  22  88 SE9       30.20F WCI  15
OLIVIA         CLOUDY    27  23  86 SE9       30.19F WCI  17
PIPESTONE      CLOUDY    27  27 100 SW3       30.13F FOG
WINDOM         CLOUDY    27  27 100 CALM      30.18F FOG
WORTHINGTON    CLOUDY    27  25  93 S8        30.17F WCI  18
JACKSON        CLOUDY    28  27  93 S6        30.19F FOG     WCI  22
TRACY          CLOUDY    28  28  97 S3        30.16F FOG
SLAYTON        CLOUDY    27  27 100 CALM      30.16F FOG
$$
MNZ065>067-074>077-082>085-091>093-191100-
   South Central Minnesota

CITY           SKY/WX    TMP DP  RH WIND       PRES   REMARKS
MANKATO        CLOUDY    25  18  74 SE8       30.23F WCI  16
NEW ULM        CLOUDY    25  23  93 SE5       30.22F WCI  19
ST JAMES       CLOUDY    27  25  93 SE7       30.23S WCI  19
FAIRMONT       CLOUDY    27  19  74 S8        30.21F WCI  18
GLENCOE        CLOUDY    24  22  92 E7        30.23F WCI  15
FARIBAULT      CLOUDY    23  19  86 SE3       30.25S
OWATONNA       CLOUDY    23  19  86 S7        30.24S WCI  15
WASECA         CLOUDY    25  21  86 SE5       30.25S WCI  19
ALBERT LEA     CLOUDY    25  21  86 S3        30.24S
$$
MNZ078>079-086>088-094>096-191100-
   Southeast Minnesota

CITY           SKY/WX    TMP DP  RH WIND       PRES   REMARKS
ROCHESTER      CLOUDY    22  17  81 S7        30.24F WCI  13
RED WING       CLOUDY    23  18  80 SE3       30.27S
STANTON        CLOUDY    24  19  81 SE3       30.24F
DODGE CENTER   CLOUDY    23  21  93 S6        30.23F WCI  16
WINONA         CLOUDY    25  19  80 CALM      30.30S
AUSTIN         CLOUDY    23  19  86 S5        30.25R WCI  17
PRESTON        CLOUDY    22  18  84 S3        30.26S
$$
ABBREVIATIONS USED IN REMARKS
   TC - TEMPERATURES IN CELSIUS
  WCI - WIND CHILL INDEX
   HX - HEAT INDEX
  VSB - VISIBILITY
$$



USA.gov is the U.S. government's official web portal to all federal, state and local government web resources and services.